User: anonymous
Location: Unspecified
(0.0000°N, 0.0000°E)
Time: 23:53:25
(UTC+02:00)
Language:

Cosmos 1437 - Orbit

View from above orbital plane
View from above orbital plane
View from above satellite
View from above satellite

Ground track
Ground track

The orbit data is extracted from the following two-line orbital elements,

1 13770U 83003A   14106.12405961  .00010675  00000-0  36767-3 0  5292
2 13770 081.1638 109.7629 0010124 339.4748 062.2379 15.29865461708086
Epoch (UTC): 16 April 2014 02:58:38
Eccentricity: 0.0010124
inclination: 81.1638°
perigee height: 469 km
apogee height: 483 km
right ascension of ascending node: 109.7629°
argument of perigee: 339.4748°
revolutions per day: 15.29865461
mean anomaly at epoch: 62.2379°
orbit number at epoch: 70808

The dashed part of the orbit path shows where the satellite is in the earth's shadow,  

DLR